This is the latest recevied weather packets stored in our database for station/object KG5EO. If no packets are shown the sender has not sent any weather packets the latest 10 day(s).
| Time | Temp. | Humidity | Pressure | Rain* | Wind** | Luminosity | Snow |
|---|---|---|---|---|---|---|---|
| 1778052959 | 15.56° C | 45% | 41 hPa | 0 mm | - | - | - |
| 1778052663 | 15.56° C | 45% | 41 hPa | 0 mm | - | - | - |
| 1778052360 | 15.56° C | 45% | 41 hPa | 0 mm | - | - | - |
| 1778052059 | 15° C | 46% | 41 hPa | 0 mm | - | - | - |
| 1778051761 | 15° C | 46% | 41 hPa | 0 mm | - | - | - |
| 1778051459 | 15° C | 47% | 41 hPa | 0 mm | - | - | - |
| 1778051160 | 15° C | 45% | 41 hPa | 0 mm | - | - | - |
| 1778050860 | 15° C | 43% | 41 hPa | 0 mm | - | - | - |
| 1778050558 | 15.56° C | 43% | 41 hPa | 0 mm | - | - | - |
| 1778050258 | 15.56° C | 43% | 41 hPa | 0 mm | - | - | - |
| 1778049960 | 15.56° C | 43% | 41 hPa | 0 mm | - | - | - |
| 1778049658 | 15.56° C | 45% | 41 hPa | 0 mm | - | - | - |
| 1778049359 | 15.56° C | 46% | 41 hPa | 0 mm | - | - | - |
| 1778049058 | 15.56° C | 43% | 41 hPa | 0 mm | - | - | - |
| 1778048757 | 16.11° C | 41% | 41 hPa | 0 mm | - | - | - |
| 1778048459 | 16.11° C | 41% | 41 hPa | 0 mm | - | - | - |
| 1778048157 | 16.67° C | 40% | 41 hPa | 0 mm | - | - | - |
| 1778047857 | 16.67° C | 42% | 41 hPa | 0 mm | - | - | - |
| 1778047557 | 17.22° C | 41% | 41 hPa | 0 mm | - | - | - |
| 1778047257 | 17.78° C | 39% | 41 hPa | 0 mm | - | - | - |
| 1778046957 | 17.78° C | 38% | 41 hPa | 0 mm | - | - | - |
| 1778046658 | 17.22° C | 37% | 41 hPa | 0 mm | - | - | - |
| 1778046356 | 17.22° C | 38% | 41 hPa | 0 mm | - | - | - |
| 1778046057 | 17.22° C | 40% | 41 hPa | 0 mm | - | - | - |
| 1778045756 | 17.22° C | 38% | 41 hPa | 0 mm | - | - | - |
* Rain latest hour (hover to see other rain measurements)
** Current wind speed in m/s (hover to see current wind gust speed)